LES 8 9/SOL 11A B DEB *, 13753

Orbit data source: Space-Track

LES 8 9/SOL 11A B DEB *, 13753 is space debris in GEO originally from a launch on Mon, 15 Mar 1976 UTC launched from the Air Force Eastern Test Range (AFETR). Debris objects in space refer to the collection of defunct objects orbiting the Earth. Examples of debris include non-operational satellites, rocket bodies, and fragments generated from explosions, collisions, or faulty payload assembly.

Loading next visibility...
Identifier
13753, 1976-023K
Orbit
GEO
Country
Flag of USUS
Related business
Manufacturer
Unknown
Mission
Spacecraft
Bus & Motor
Unknown
Mass
Unknown
Launch date (UTC)
1976-03-15 (50 years ago)
Launch vehicle
Unknown
Launch site
Air Force Eastern Test Range (AFETR)
Object type
Payload
Rocket body
Debris
Shape & HBR
Unknown shape, 1.1 m
Radar Cross Section
Large (>1 m²)

Expand to show TLE details & history
Last TLE update: 17 hours ago

TLE from 17 hours ago
0 LES 8 9/SOL 11A B DEB *
1 13753U 76023K   25305.58174383  .00000006  00000-0  00000-0 0  9997
2 13753   5.3913 283.2409 0003202  12.8853 169.0141  1.01343166120206
Epoch: 2025-11-01T13:57Z
TLE epoch observation values (Epoch: 2025-11-01T13:57:42.666Z)
Latitude
-0.1944°
Longitude
-145.43553°
Altitude
35,501.52 km
Speed
3.085 km/s
True Right ascension
07h 00m 24s
True Declination
0° 11' 39"
Sunlit
Object was in daylight at epoch
Visualization orbit readout
Latitude
Unknown
Longitude
Unknown
Altitude
Unknown
Speed
Unknown
Apparent Right ascension
Unknown
Apparent Declination
Unknown
Sunlit
N/A
Visualization observer readout
Local Sidereal Time
03:01:22
Azimuth
Unknown
Elevation
Unknown
Doppler factor
Unknown
Orbital elements
Apogee altitude
35,503.367 km
Perigee altitude
35,476.555 km
Semi-major axis
41,868.098 km
Eccentricity
0.00032
Inclination
5.3913°
RAAN
283.2409°
Arg. of periapsis
12.8853°
True anomaly
169.02109°
Mean anomaly
169.0141°
Eccentric anomaly
169.0176°
Mean motion
0.25335 °/min
Orbital period
1,420.97 mins
BSTAR
0
Loading maneuver chart data...
Computing Atmospheric mass density...
Loading historical data...
Loading historical data...
Loading historical data...
Loading historical data...
Loading historical data...
Loading historical data...
Loading historical data...

Documentation

Showing up to 5 results
|